TimeMDT,TemperatureF,Dew PointF,Humidity,Sea Level PressureIn,VisibilityMPH,Wind Direction,Wind SpeedMPH,Gust SpeedMPH,PrecipitationIn,Events,Conditions,WindDirDegrees,DateUTC
12:53 AM,39.0,33.1,79,29.72,10.0,NW,9.2,-,N/A,,Clear,310,2013-10-20 06:53:00
1:53 AM,36.0,33.1,89,29.72,10.0,NW,5.8,-,N/A,,Mostly Cloudy,320,2013-10-20 07:53:00
2:53 AM,45.0,35.1,68,29.70,10.0,WNW,18.4,-,N/A,,Overcast,300,2013-10-20 08:53:00
3:53 AM,42.1,35.1,76,29.73,10.0,WNW,17.3,-,N/A,,Clear,290,2013-10-20 09:53:00
4:49 AM,44.6,35.6,71,29.74,10.0,NW,25.3,40.3,N/A,,Overcast,310,2013-10-20 10:49:00
4:53 AM,42.1,36.0,79,29.76,10.0,NW,28.8,38.0,0.00,Rain,Light Rain,310,2013-10-20 10:53:00
5:21 AM,41.0,35.6,81,29.75,10.0,NW,21.9,31.1,0.00,,Overcast,310,2013-10-20 11:21:00
5:32 AM,41.0,35.6,81,29.75,10.0,NW,21.9,33.4,0.00,,Overcast,310,2013-10-20 11:32:00
5:53 AM,41.0,36.0,82,29.78,10.0,NW,21.9,32.2,0.00,,Overcast,310,2013-10-20 11:53:00
6:15 AM,41.0,37.4,87,29.77,10.0,WNW,19.6,27.6,N/A,,Overcast,300,2013-10-20 12:15:00
6:53 AM,41.0,36.0,82,29.82,10.0,NW,21.9,31.1,N/A,,Overcast,310,2013-10-20 12:53:00
7:19 AM,39.2,35.6,87,29.80,10.0,NW,20.7,34.5,0.00,Rain,Light Rain,310,2013-10-20 13:19:00
7:32 AM,39.2,35.6,87,29.81,10.0,NW,25.3,34.5,0.00,Rain,Light Rain,320,2013-10-20 13:32:00
7:53 AM,39.0,36.0,89,29.86,10.0,NNW,17.3,26.5,0.00,Rain,Light Rain,330,2013-10-20 13:53:00
8:43 AM,37.4,33.8,87,29.86,10.0,NW,25.3,33.4,0.01,,Overcast,310,2013-10-20 14:43:00
8:53 AM,37.0,34.0,89,29.92,10.0,NW,23.0,29.9,0.01,,Overcast,320,2013-10-20 14:53:00
9:20 AM,37.4,33.8,87,29.89,10.0,NW,20.7,33.4,N/A,,Overcast,320,2013-10-20 15:20:00
9:30 AM,35.6,32.0,87,29.90,10.0,NW,25.3,31.1,N/A,,Overcast,320,2013-10-20 15:30:00
9:53 AM,36.0,30.9,82,29.96,10.0,NW,23.0,34.5,N/A,,Overcast,310,2013-10-20 15:53:00
10:53 AM,36.0,30.0,79,29.99,10.0,NW,21.9,28.8,N/A,,Overcast,310,2013-10-20 16:53:00
11:53 AM,39.0,28.0,65,30.00,10.0,NNW,24.2,29.9,N/A,,Overcast,330,2013-10-20 17:53:00
12:05 PM,39.2,28.4,65,29.95,10.0,NW,19.6,28.8,N/A,,Overcast,320,2013-10-20 18:05:00
12:53 PM,37.9,28.0,68,30.00,10.0,NW,19.6,25.3,N/A,,Overcast,320,2013-10-20 18:53:00
1:53 PM,39.0,25.0,57,30.02,10.0,NW,17.3,25.3,N/A,,Overcast,320,2013-10-20 19:53:00
2:53 PM,41.0,23.0,49,30.01,10.0,NW,19.6,24.2,N/A,,Overcast,320,2013-10-20 20:53:00
3:53 PM,41.0,25.0,53,30.01,10.0,North,17.3,25.3,N/A,,Scattered Clouds,360,2013-10-20 21:53:00
4:53 PM,39.0,25.0,57,30.03,10.0,North,13.8,-,N/A,,Clear,350,2013-10-20 22:53:00
5:53 PM,33.1,24.1,70,30.06,10.0,NNW,8.1,-,N/A,,Clear,340,2013-10-20 23:53:00
6:53 PM,32.0,26.1,79,30.07,10.0,Calm,Calm,-,N/A,,Overcast,0,2013-10-21 00:53:00
7:53 PM,34.0,26.1,73,30.07,10.0,Calm,Calm,-,N/A,,Overcast,0,2013-10-21 01:53:00
8:53 PM,32.0,27.0,82,30.09,10.0,Calm,Calm,-,N/A,,Overcast,0,2013-10-21 02:53:00
9:53 PM,32.0,27.0,82,30.09,10.0,Calm,Calm,-,N/A,,Overcast,0,2013-10-21 03:53:00
10:53 PM,27.0,24.1,89,30.09,10.0,Calm,Calm,-,N/A,,Partly Cloudy,0,2013-10-21 04:53:00
11:53 PM,26.1,23.0,88,30.09,10.0,Calm,Calm,-,N/A,,Mostly Cloudy,0,2013-10-21 05:53:00